SHIJIAN-28 (SJ-28)

Last updated on Mon Sep 07 2026 00:03:03 GMT+0000 (Coordinated Universal Time)

1 66549U 25277A 26249.61487509 -.00000379 00000+0 00000+0 0 9994 2 66549 4.3347 270.8742 0001344 66.8097 346.1692 1.00274470 2975
UTC large
Height (km)
Speed (km/s)
/
Latitude / Longitude
Inclination (degrees)
Orbital Period (minutes)
Azimuth
Elevation
Range (km)
Doppler Factor

Next 0 passes for location: London (51.5072 / 0.1276)

No passes found over London.
SHIJIAN-28 (SJ-28)